Date String (YYYY-MM-DD hh:mm:ss) UTC,Instrument flags,absolute air pressure of the measurement (hPa),sample flow rate (lpm),inlet stack bypass flow (lpm),air temperature of the measurement (°C),ambient temperature measured by the external sensor (°C),aerosol sample conditioner tube jacket temperature (°C),OPC LED temperature (°C),internal box temperature (°C),relative humidity of the measurement (%),span deviation,mass concentration of particles derived from Lorenz-Mie calculation of OPC scattering (μg/m³),mass concentration of particles derived from Lorenz-Mie calculation of OPC scattering (μg/m³),mass concentration of particles derived from Lorenz-Mie calculation of OPC scattering (μg/m³)
DateTimeUTC,F1_M11,P_M11,Q1_M11,Q2_M11,T1_M11,T2_M11,T3_M11,T4_M11,T5_M11,U1_M11,ZSPAN_M11,X0_M11,X2_M11,X1_M11
2024-02-25 22:00:00,SystemResetWarning,0821.5,5.00,000.00,023.2,022.4,000.0,031.4,024.9,07.8,0000.0,0014.47,0002.95,0001.17
2024-02-25 22:01:00,SystemResetWarning,0821.2,4.99,000.00,023.2,022.4,000.0,031.4,024.9,07.6,0000.0,0015.89,0003.09,0001.18
2024-02-25 22:02:00,SystemResetWarning,0821.5,4.99,000.00,023.2,022.4,000.0,031.4,024.9,07.6,0000.0,0015.63,0003.14,0001.18
2024-02-25 22:03:00,SystemResetWarning,0821.2,5.00,000.00,023.2,022.4,000.0,031.4,024.9,07.6,0000.0,0017.21,0003.20,0001.18
2024-02-25 22:04:00,SystemResetWarning,0820.9,5.00,000.00,023.2,022.4,000.0,031.4,024.9,07.6,0000.0,0018.45,0003.31,0001.19
2024-02-25 22:05:00,SystemResetWarning,0820.9,5.00,000.00,023.2,022.4,000.0,031.4,024.8,07.5,0000.0,0019.87,0003.51,0001.24
2024-02-25 22:06:00,SystemResetWarning,0820.9,5.00,000.00,023.2,022.4,000.0,031.4,024.8,07.5,0000.0,0020.97,0003.71,0001.28
2024-02-25 22:07:00,SystemResetWarning,0821.2,5.01,000.00,023.2,022.4,000.0,031.4,024.9,07.6,0000.0,0020.95,0003.88,0001.30
2024-02-25 22:08:00,SystemResetWarning,0821.2,5.00,000.00,023.2,022.4,000.0,031.4,024.9,07.6,0000.0,0022.46,0004.02,0001.32
2024-02-25 22:09:00,SystemResetWarning,0821.1,5.00,000.00,023.2,022.4,000.0,031.4,024.9,07.7,0000.0,0023.46,0004.12,0001.32
2024-02-25 22:10:00,SystemResetWarning,0821.2,5.00,000.00,023.2,022.4,000.0,031.4,024.9,07.5,0000.0,0023.97,0004.21,0001.33
2024-02-25 22:11:00,SystemResetWarning,0821.5,5.00,000.00,023.2,022.4,000.0,031.4,024.9,07.5,0000.0,0022.92,0004.23,0001.33
2024-02-25 22:12:00,SystemResetWarning,0821.6,4.99,000.00,023.2,022.4,000.0,031.4,024.9,07.7,0000.0,0021.01,0004.14,0001.31
2024-02-25 22:13:00,SystemResetWarning,0821.1,4.99,000.00,023.2,022.4,000.0,031.4,024.9,07.7,0000.0,0022.20,0004.25,0001.33
2024-02-25 22:14:00,SystemResetWarning,0821.0,5.01,000.00,023.2,022.4,000.0,031.4,024.9,07.6,0000.0,0021.08,0004.24,0001.32
2024-02-25 22:15:00,SystemResetWarning,0821.1,5.01,000.00,023.2,022.4,000.0,031.4,024.9,07.5,0000.0,0019.26,0004.12,0001.31
2024-02-25 22:16:00,SystemResetWarning,0821.0,4.99,000.00,023.2,022.4,000.0,031.4,024.9,07.5,0000.0,0019.69,0004.12,0001.30
2024-02-25 22:17:00,SystemResetWarning,0821.2,4.99,000.00,023.2,022.4,000.0,031.4,024.9,07.5,0000.0,0020.75,0004.15,0001.29
2024-02-25 22:18:00,SystemResetWarning,0821.3,5.01,000.00,023.2,022.4,000.0,031.4,024.9,07.5,0000.0,0022.24,0004.11,0001.28
2024-02-25 22:19:00,SystemResetWarning,0821.2,5.01,000.00,023.2,022.4,000.0,031.4,024.9,07.6,0000.0,0022.00,0004.01,0001.27
2024-02-25 22:20:00,SystemResetWarning,0821.2,5.00,000.00,023.2,022.4,000.0,031.4,024.9,07.6,0000.0,0020.82,0003.87,0001.25
2024-02-25 22:21:00,SystemResetWarning,0821.1,4.99,000.00,023.2,022.4,000.0,031.4,024.9,07.6,0000.0,0019.20,0003.73,0001.22
2024-02-25 22:22:00,SystemResetWarning,0821.0,4.99,000.00,023.2,022.4,000.0,031.4,024.9,07.6,0000.0,0018.13,0003.64,0001.20
2024-02-25 22:23:00,SystemResetWarning,0821.0,5.02,000.00,023.2,022.4,000.0,031.4,024.9,07.4,0000.0,0017.77,0003.58,0001.19
2024-02-25 22:24:00,SystemResetWarning,0821.2,5.00,000.00,023.2,022.4,000.0,031.4,024.9,07.5,0000.0,0016.98,0003.47,0001.18
2024-02-25 22:25:00,SystemResetWarning,0821.2,4.99,000.00,023.2,022.4,000.0,031.4,024.9,07.6,0000.0,0019.86,0003.70,0001.23
2024-02-25 22:26:00,SystemResetWarning,0821.1,5.00,000.00,023.2,022.4,000.0,031.4,024.9,07.5,0000.0,0033.02,0005.16,0001.51
2024-02-25 22:27:00,SystemResetWarning,0821.0,5.01,000.00,023.2,022.4,000.0,031.4,024.9,07.5,0000.0,0035.11,0005.31,0001.54
2024-02-25 22:28:00,SystemResetWarning,0821.2,5.00,000.00,023.2,022.4,000.0,031.4,024.9,07.5,0000.0,0033.75,0005.11,0001.51
2024-02-25 22:29:00,SystemResetWarning,0821.3,4.99,000.00,023.2,022.4,000.0,031.4,024.9,07.5,0000.0,0032.84,0005.06,0001.50
2024-02-25 22:30:00,SystemResetWarning,0821.2,5.01,000.00,023.2,022.4,000.0,031.4,024.9,07.4,0000.0,0031.95,0005.04,0001.50
2024-02-25 22:31:00,SystemResetWarning,0820.9,5.00,000.00,023.2,022.4,000.0,031.4,024.9,07.5,0000.0,0032.05,0005.02,0001.49
2024-02-25 22:32:00,SystemResetWarning,0821.1,5.00,000.00,023.2,022.4,000.0,031.4,024.9,07.3,0000.0,0032.95,0005.02,0001.49
2024-02-25 22:33:00,SystemResetWarning,0821.2,5.01,000.00,023.2,022.4,000.0,031.4,024.9,07.4,0000.0,0036.40,0005.20,0001.52
2024-02-25 22:34:00,SystemResetWarning,0821.1,5.00,000.00,023.2,022.4,000.0,031.4,024.9,07.4,0000.0,0038.42,0005.40,0001.55
2024-02-25 22:35:00,SystemResetWarning,0821.1,5.01,000.00,023.2,022.4,000.0,031.4,024.9,07.5,0000.0,0039.33,0005.56,0001.57
2024-02-25 22:36:00,SystemResetWarning,0821.4,4.99,000.00,023.2,022.4,000.0,031.4,024.9,07.6,0000.0,0040.79,0005.75,0001.60
2024-02-25 22:37:00,SystemResetWarning,0821.3,5.00,000.00,023.2,022.4,000.0,031.4,024.9,07.6,0000.0,0031.73,0004.65,0001.37
2024-02-25 22:38:00,SystemResetWarning,0821.4,5.00,000.00,023.2,022.5,000.0,031.5,025.0,07.6,0000.0,0028.36,0004.34,0001.30
2024-02-25 22:39:00,SystemResetWarning,0821.6,5.00,000.00,023.2,022.5,000.0,031.5,025.0,07.7,0000.0,0028.43,0004.35,0001.30
2024-02-25 22:40:00,SystemResetWarning,0821.3,5.00,000.00,023.3,022.5,000.0,031.5,025.0,07.6,0000.0,0027.55,0004.31,0001.29
2024-02-25 22:41:00,SystemResetWarning,0821.3,4.99,000.00,023.3,022.5,000.0,031.5,025.0,07.6,0000.0,0027.54,0004.29,0001.28
2024-02-25 22:42:00,SystemResetWarning,0821.6,5.00,000.00,023.3,022.5,000.0,031.5,025.0,07.4,0000.0,0027.75,0004.32,0001.29
2024-02-25 22:43:00,SystemResetWarning,0821.4,5.01,000.00,023.3,022.5,000.0,031.5,025.0,07.6,0000.0,0029.01,0004.49,0001.32
2024-02-25 22:44:00,SystemResetWarning,0821.6,5.00,000.00,023.3,022.6,000.0,031.5,025.0,07.6,0000.0,0026.01,0004.31,0001.29
2024-02-25 22:45:00,SystemResetWarning,0821.5,5.00,000.00,023.3,022.6,000.0,031.5,025.0,07.7,0000.0,0023.97,0004.11,0001.25
2024-02-25 22:46:00,SystemResetWarning,0821.4,5.00,000.00,023.3,022.6,000.0,031.5,025.0,07.6,0000.0,0022.19,0003.90,0001.21
2024-02-25 22:47:00,SystemResetWarning,0821.4,5.00,000.00,023.3,022.6,000.0,031.5,025.0,07.5,0000.0,0018.13,0003.47,0001.12
2024-02-25 22:48:00,SystemResetWarning,0821.3,5.00,000.00,023.3,022.6,000.0,031.5,025.0,07.5,0000.0,0014.64,0003.11,0001.07
2024-02-25 22:49:00,SystemResetWarning,0821.4,5.00,000.00,023.3,022.6,000.0,031.5,025.0,07.6,0000.0,0012.49,0002.72,0001.03
2024-02-25 22:50:00,SystemResetWarning,0821.3,5.00,000.00,023.3,022.6,000.0,031.5,025.0,07.7,0000.0,0011.60,0002.60,0001.01
2024-02-25 22:51:00,SystemResetWarning,0821.2,5.00,000.00,023.3,022.6,000.0,031.5,025.0,07.5,0000.0,0011.23,0002.52,0001.01
2024-02-25 22:52:00,SystemResetWarning,0821.3,5.00,000.00,023.3,022.6,000.0,031.5,025.0,07.6,0000.0,0011.70,0002.49,0001.01
2024-02-25 22:53:00,SystemResetWarning,0821.3,5.00,000.00,023.4,022.6,000.0,031.5,025.0,07.6,0000.0,0010.96,0002.39,0000.99
2024-02-25 22:54:00,SystemResetWarning,0821.2,5.00,000.00,023.4,022.6,000.0,031.6,025.1,07.5,0000.0,0008.85,0001.96,0000.97
2024-02-25 22:55:00,SystemResetWarning,0821.5,4.99,000.00,023.4,022.7,000.0,031.6,025.1,07.5,0000.0,0008.92,0001.87,0000.96
2024-02-25 22:56:00,SystemResetWarning,0821.5,4.99,000.00,023.4,022.7,000.0,031.6,025.1,07.6,0000.0,0008.75,0001.85,0000.97
2024-02-25 22:57:00,SystemResetWarning,0821.5,4.99,000.00,023.4,022.7,000.0,031.6,025.1,07.7,0000.0,0008.75,0001.89,0000.98
2024-02-25 22:58:00,SystemResetWarning,0821.2,5.01,000.00,023.4,022.7,000.0,031.6,025.1,07.6,0000.0,0008.73,0001.94,0000.98
2024-02-25 22:59:00,SystemResetWarning,0821.1,5.01,000.00,023.4,022.7,000.0,031.6,025.1,07.4,0000.0,0008.73,0001.97,0000.97
